• In Hungary
  • List of Countries
  • For 7 days
  • Water Temperature
  • Satellite Maps
  • Weather Map
  • News
  • Weather Widgets
  • user-avatar
    Login

    Hourly Weather Horob'ivka

    Today, 19 June, Tuesday

    Time Temperature Precipitation Wind Pressure Humidity
    00:00 +18°C° 0 mm 2 mps 752 mmHg 76%
    01:00 +18°C° 0 mm 2 mps 753 mmHg 78%
    02:00 +17°C° 0 mm 2 mps 753 mmHg 79%
    03:00 +17°C° 0 mm 2 mps 753 mmHg 80%
    04:00 +17°C° 0 mm 2 mps 753 mmHg 80%
    05:00 +18°C° 0 mm 2 mps 753 mmHg 80%
    06:00 +18°C° 0 mm 2 mps 753 mmHg 80%
    07:00 +20°C° 0 mm 2 mps 753 mmHg 74%
    08:00 +23°C° 0 mm 2 mps 753 mmHg 68%
    09:00 +25°C° 0 mm 2 mps 754 mmHg 62%
    10:00 +26°C° 0 mm 2 mps 754 mmHg 57%
    11:00 +27°C° 0 mm 2 mps 754 mmHg 51%
    12:00 +28°C° 0 mm 2 mps 754 mmHg 46%
    13:00 +28°C° 0 mm 1 mps 753 mmHg 46%
    14:00 +28°C° 0 mm 1 mps 753 mmHg 46%
    15:00 +28°C° 0 mm 1 mps 753 mmHg 47%
    16:00 +28°C° 0 mm 1 mps 753 mmHg 49%
    17:00 +28°C° 0 mm 1 mps 753 mmHg 51%
    18:00 +28°C° 0 mm 1 mps 753 mmHg 53%
    19:00 +26°C° 0 mm 1 mps 753 mmHg 57%
    20:00 +24°C° 0 mm 1 mps 753 mmHg 61%
    21:00 +22°C° 0 mm 1 mps 753 mmHg 64%
    22:00 +22°C° 0 mm 1 mps 753 mmHg 66%
    23:00 +21°C° 0 mm 1 mps 753 mmHg 67%

    Tomorrow, 20 June, Wednesday

    Time Temperature Precipitation Wind Pressure Humidity
    00:00 +21°C° 0 mm 1 mps 753 mmHg 69%
    01:00 +20°C° 0 mm 1 mps 753 mmHg 70%
    02:00 +20°C° 0 mm 1 mps 753 mmHg 72%
    03:00 +19°C° 0 mm 2 mps 753 mmHg 73%
    04:00 +19°C° 0 mm 2 mps 754 mmHg 75%
    05:00 +19°C° 0 mm 2 mps 754 mmHg 77%
    06:00 +20°C° 0 mm 2 mps 754 mmHg 78%
    07:00 +23°C° 0 mm 2 mps 754 mmHg 74%
    08:00 +25°C° 0 mm 3 mps 753 mmHg 70%
    09:00 +26°C° 0 mm 3 mps 753 mmHg 66%
    10:00 +27°C° 0.2 mm 3 mps 753 mmHg 64%
    11:00 +28°C° 0.2 mm 3 mps 753 mmHg 63%
    12:00 +29°C° 0.2 mm 4 mps 753 mmHg 61%
    13:00 +28°C° 0.3 mm 4 mps 753 mmHg 63%
    14:00 +28°C° 0.3 mm 4 mps 753 mmHg 65%
    15:00 +28°C° 0.3 mm 4 mps 753 mmHg 67%
    16:00 +28°C° 0 mm 4 mps 753 mmHg 66%
    17:00 +28°C° 0 mm 4 mps 753 mmHg 65%
    18:00 +28°C° 0 mm 4 mps 753 mmHg 64%
    19:00 +27°C° 0 mm 3 mps 753 mmHg 70%
    20:00 +25°C° 0 mm 3 mps 753 mmHg 76%
    21:00 +22°C° 0 mm 3 mps 754 mmHg 83%
    22:00 +21°C° 0 mm 3 mps 754 mmHg 85%
    23:00 +20°C° 0 mm 3 mps 754 mmHg 88%

    Day after tomorrow, 21 June, Thursday

    Time Temperature Precipitation Wind Pressure Humidity
    00:00 +19°C° 0 mm 3 mps 754 mmHg 91%
    01:00 +18°C° 0 mm 2 mps 754 mmHg 91%
    02:00 +18°C° 0 mm 2 mps 755 mmHg 92%
    03:00 +17°C° 0 mm 2 mps 755 mmHg 92%
    04:00 +17°C° 0 mm 2 mps 755 mmHg 90%
    05:00 +17°C° 0 mm 2 mps 755 mmHg 89%
    06:00 +18°C° 0 mm 2 mps 755 mmHg 87%
    07:00 +19°C° 0 mm 2 mps 755 mmHg 80%
    08:00 +21°C° 0 mm 2 mps 755 mmHg 72%
    09:00 +24°C° 0 mm 2 mps 755 mmHg 65%
    10:00 +25°C° 0 mm 2 mps 755 mmHg 60%
    11:00 +26°C° 0 mm 2 mps 755 mmHg 55%
    12:00 +27°C° 0 mm 2 mps 754 mmHg 50%
    13:00 +27°C° 0 mm 2 mps 754 mmHg 49%
    14:00 +28°C° 0 mm 2 mps 754 mmHg 48%
    15:00 +28°C° 0 mm 2 mps 753 mmHg 46%
    16:00 +28°C° 0 mm 2 mps 753 mmHg 48%
    17:00 +28°C° 0 mm 2 mps 753 mmHg 51%
    18:00 +27°C° 0 mm 2 mps 753 mmHg 53%
    19:00 +25°C° 0 mm 2 mps 753 mmHg 58%
    20:00 +24°C° 0 mm 2 mps 753 mmHg 63%
    21:00 +22°C° 0 mm 1 mps 753 mmHg 69%
    22:00 +21°C° 0 mm 1 mps 753 mmHg 71%
    23:00 +20°C° 0 mm 1 mps 753 mmHg 73%

    22 June, Friday

    Time Temperature Precipitation Wind Pressure Humidity
    00:00 +19°C° 0 mm 2 mps 753 mmHg 75%
    01:00 +18°C° 0 mm 2 mps 753 mmHg 77%
    02:00 +18°C° 0 mm 2 mps 753 mmHg 79%
    03:00 +17°C° 0 mm 2 mps 753 mmHg 81%
    04:00 +18°C° 0 mm 2 mps 753 mmHg 82%
    05:00 +18°C° 0 mm 2 mps 753 mmHg 82%
    06:00 +18°C° 0 mm 2 mps 753 mmHg 82%
    07:00 +20°C° 0 mm 3 mps 752 mmHg 76%
    08:00 +22°C° 0 mm 3 mps 752 mmHg 70%
    09:00 +25°C° 0 mm 4 mps 752 mmHg 64%
    10:00 +26°C° 0 mm 4 mps 752 mmHg 59%
    11:00 +28°C° 0 mm 4 mps 751 mmHg 54%
    12:00 +29°C° 0 mm 4 mps 751 mmHg 50%
    13:00 +29°C° 0 mm 3 mps 751 mmHg 47%
    14:00 +30°C° 0 mm 3 mps 750 mmHg 45%
    15:00 +30°C° 0 mm 3 mps 750 mmHg 43%
    16:00 +30°C° 0 mm 3 mps 750 mmHg 46%
    17:00 +30°C° 0 mm 2 mps 750 mmHg 50%
    18:00 +30°C° 0 mm 2 mps 749 mmHg 53%
    19:00 +28°C° 0 mm 2 mps 749 mmHg 56%
    20:00 +26°C° 0 mm 3 mps 749 mmHg 60%
    21:00 +24°C° 0 mm 3 mps 749 mmHg 63%
    22:00 +22°C° 0 mm 3 mps 749 mmHg 63%
    23:00 +22°C° 0 mm 3 mps 749 mmHg 63%

    23 June, Saturday

    Time Temperature Precipitation Wind Pressure Humidity
    00:00 +21°C° 0 mm 3 mps 749 mmHg 63%
    01:00 +21°C° 0.1 mm 3 mps 749 mmHg 64%
    02:00 +21°C° 0.1 mm 3 mps 748 mmHg 65%
    03:00 +20°C° 0.1 mm 3 mps 748 mmHg 67%
    04:00 +20°C° 0.2 mm 3 mps 748 mmHg 70%
    05:00 +20°C° 0.2 mm 3 mps 748 mmHg 73%
    06:00 +20°C° 0.2 mm 3 mps 748 mmHg 76%
    07:00 +21°C° 0.1 mm 3 mps 748 mmHg 73%
    08:00 +24°C° 0.1 mm 3 mps 748 mmHg 69%
    09:00 +25°C° 0.1 mm 3 mps 748 mmHg 65%
    10:00 +27°C° 0 mm 4 mps 748 mmHg 61%
    11:00 +28°C° 0 mm 5 mps 747 mmHg 57%
    12:00 +29°C° 0 mm 6 mps 747 mmHg 52%
    13:00 +29°C° 0 mm 6 mps 747 mmHg 52%
    14:00 +29°C° 0 mm 6 mps 746 mmHg 52%
    15:00 +30°C° 0 mm 6 mps 746 mmHg 52%
    16:00 +28°C° 0.4 mm 5 mps 746 mmHg 58%
    17:00 +27°C° 0.4 mm 4 mps 746 mmHg 63%
    18:00 +26°C° 0.4 mm 3 mps 746 mmHg 69%
    19:00 +25°C° 0.9 mm 3 mps 746 mmHg 73%
    20:00 +24°C° 0.9 mm 3 mps 746 mmHg 78%
    21:00 +21°C° 0.9 mm 3 mps 746 mmHg 83%
    22:00 +20°C° 0.8 mm 3 mps 746 mmHg 86%
    23:00 +19°C° 0.8 mm 4 mps 746 mmHg 89%

    24 June, Sunday

    Time Temperature Precipitation Wind Pressure Humidity
    00:00 +18°C° 0.8 mm 4 mps 747 mmHg 93%
    01:00 +17°C° 0.1 mm 4 mps 747 mmHg 93%
    02:00 +15°C° 0.1 mm 5 mps 748 mmHg 92%
    03:00 +15°C° 0.1 mm 6 mps 748 mmHg 92%
    04:00 +14°C° 0 mm 6 mps 749 mmHg 91%
    05:00 +14°C° 0 mm 6 mps 749 mmHg 90%
    06:00 +13°C° 0 mm 6 mps 750 mmHg 89%
    07:00 +14°C° 0 mm 6 mps 750 mmHg 85%
    08:00 +15°C° 0 mm 6 mps 751 mmHg 81%
    09:00 +16°C° 0 mm 6 mps 751 mmHg 77%
    10:00 +17°C° 0 mm 5 mps 751 mmHg 71%
    11:00 +19°C° 0 mm 5 mps 752 mmHg 66%
    12:00 +21°C° 0 mm 5 mps 752 mmHg 61%
    13:00 +21°C° 0 mm 5 mps 752 mmHg 59%
    14:00 +22°C° 0 mm 5 mps 752 mmHg 57%
    15:00 +23°C° 0 mm 5 mps 752 mmHg 55%
    16:00 +22°C° 0 mm 5 mps 752 mmHg 57%
    17:00 +22°C° 0 mm 4 mps 752 mmHg 59%
    18:00 +22°C° 0 mm 4 mps 753 mmHg 61%
    19:00 +20°C° 0 mm 3 mps 753 mmHg 65%
    20:00 +19°C° 0 mm 3 mps 753 mmHg 70%
    21:00 +18°C° 0 mm 2 mps 753 mmHg 74%
    22:00 +17°C° 0 mm 2 mps 754 mmHg 77%
    23:00 +16°C° 0 mm 2 mps 754 mmHg 79%
    Show more